Elkins, WV

1:26 PM EDT on May 28, 2017 (GMT -0400)
Elkins-Randolph County

Weather History for KEKN - September, 2013

Change the Weather History Date:

Tuesday, September 3, 2013

  Actual Average Record
Temperature  
Mean Temperature 67 °F 66 °F  
Max Temperature 77 °F 78 °F 97 °F (1953)
Min Temperature 56 °F 55 °F 39 °F (1934)
Degree Days  
Heating Degree Days 0 2  
Month to date heating degree days 0 4  
Since 1 July heating degree days 23 34  
Cooling Degree Days 2 3  
Month to date cooling degree days 18 9  
Year to date cooling degree days 481 435  
Growing Degree Days 18 (Base 50)    
Moisture  
Dew Point 61 °F    
Average Humidity 73    
Maximum Humidity 93    
Minimum Humidity 53    
Precipitation  
Precipitation 0.00 in 0.13 in 1.76 in (1943)
Month to date precipitation 0.72 0.38  
Year to date precipitation 33.64 33.19  
Snow  
Snow 0.00 in - - ()
Month to date snowfall 0.0  
Since 1 September snowfall 0.0  
Snow Depth 0.00 in    
Sea Level Pressure  
Sea Level Pressure 29.95 in    
Wind  
Wind Speed 4 mph (NW)    
Max Wind Speed 14 mph    
Max Gust Speed 20 mph    
Visibility 10 miles    
Events      
T = Trace of Precipitation, MM = Missing Value Source: NWS Daily Summary

Daily Weather History Graph

Daily Weather History Graph

Search for Another Location

Airport or City:

Trip Planner

Search our weather history database for the weather conditions in past years. The results will help you decide how hot, cold, wet, or windy it might be!

Date:

Astronomy

Sep. 03, 2013 Rise Set
Actual Time 6:50 AM EDT 7:46 PM EDT
Civil Twilight 6:23 AM EDT 8:13 PM EDT
Nautical Twilight 5:50 AM EDT 8:45 PM EDT
Astronomical Twilight 5:17 AM EDT 9:19 PM EDT
Moon 5:03 AM EDT (9/3) 6:32 PM EDT (9/3)
Length of Visible Light 13h 50m
Length of Day
12h 55m
Waning Crescent, 3% of the Moon is Illuminated
Sep 3
Waning Crescent
Sep 5
New
Sep 12
First Quarter
Sep 19
Full
Sep 26
Last Quarter

Hourly Weather History & Observations

Time (EDT) Temp. Dew Point Humidity Pressure Visibility Wind Dir Wind Speed Gust Speed Precip Events Conditions
12:10 AM 66.2 °F 62.6 °F 88% 29.92 in 10.0 mi Calm Calm - N/A   Mostly Cloudy
12:35 AM 66.2 °F 62.6 °F 88% 29.92 in 10.0 mi Calm Calm - N/A   Mostly Cloudy
12:51 AM 66.0 °F 63.0 °F 90% 29.89 in 10.0 mi Calm Calm - N/A   Mostly Cloudy
1:08 AM 66.2 °F 62.6 °F 88% 29.94 in 10.0 mi Calm Calm - N/A   Mostly Cloudy
1:39 AM 64.4 °F 62.6 °F 94% 29.92 in 10.0 mi Calm Calm - N/A   Overcast
1:48 AM 66.2 °F 62.6 °F 88% 29.92 in 10.0 mi Calm Calm - N/A   Overcast
1:51 AM 66.0 °F 64.0 °F 93% 29.88 in 10.0 mi Calm Calm - N/A   Overcast
2:51 AM 66.0 °F 64.0 °F 93% 29.87 in 10.0 mi Calm Calm - N/A   Overcast
3:08 AM 66.2 °F 64.4 °F 94% 29.90 in 10.0 mi Calm Calm - N/A   Overcast
3:24 AM 66.2 °F 64.4 °F 94% 29.91 in 10.0 mi Calm Calm - N/A   Overcast
3:51 AM 66.0 °F 64.0 °F 93% 29.87 in 10.0 mi Calm Calm - N/A   Overcast
4:36 AM 66.2 °F 64.4 °F 94% 29.91 in 10.0 mi Calm Calm - N/A   Overcast
4:51 AM 66.0 °F 64.0 °F 93% 29.88 in 10.0 mi Calm Calm - N/A   Overcast
5:13 AM 66.2 °F 64.4 °F 94% 29.92 in 10.0 mi Calm Calm - N/A   Overcast
5:51 AM 64.9 °F 63.0 °F 93% 29.89 in 7.0 mi Calm Calm - N/A   Scattered Clouds
6:51 AM 64.0 °F 62.1 °F 93% 29.91 in 6.0 mi Calm Calm - N/A   Mostly Cloudy
7:32 AM 64.4 °F 62.6 °F 94% 29.96 in 10.0 mi Calm Calm - N/A   Overcast
7:40 AM 64.4 °F 62.6 °F 94% 29.96 in 9.0 mi Calm Calm - N/A   Overcast
7:51 AM 64.9 °F 63.0 °F 93% 29.94 in 8.0 mi Calm Calm - N/A   Overcast
8:01 AM 66.2 °F 62.6 °F 88% 29.96 in 10.0 mi Calm Calm - N/A   Overcast
8:19 AM 66.2 °F 62.6 °F 88% 29.97 in 10.0 mi Calm Calm - N/A   Mostly Cloudy
8:44 AM 66.2 °F 64.4 °F 94% 29.97 in 10.0 mi Calm Calm - N/A   Overcast
8:51 AM 66.9 °F 64.0 °F 90% 29.95 in 10.0 mi Calm Calm - N/A   Overcast
9:51 AM 68.0 °F 60.1 °F 76% 29.96 in 10.0 mi NW 5.8 mph - N/A   Overcast
10:26 AM 69.8 °F 60.8 °F 73% 29.99 in 10.0 mi Calm Calm - N/A   Overcast
10:48 AM 71.6 °F 60.8 °F 69% 29.99 in 10.0 mi Calm Calm - N/A   Overcast
10:51 AM 71.1 °F 61.0 °F 70% 29.97 in 10.0 mi NW 9.2 mph - N/A   Overcast
11:51 AM 70.0 °F 60.1 °F 71% 29.98 in 10.0 mi NNW 10.4 mph - N/A   Mostly Cloudy
12:51 PM 73.9 °F 60.1 °F 62% 29.97 in 10.0 mi NNW 6.9 mph - N/A   Scattered Clouds
1:51 PM 73.0 °F 55.9 °F 55% 29.97 in 10.0 mi WNW 10.4 mph 18.4 mph N/A   Partly Cloudy
2:51 PM 75.9 °F 59.0 °F 56% 29.96 in 10.0 mi NNW 9.2 mph 19.6 mph N/A   Partly Cloudy
3:51 PM 75.9 °F 57.0 °F 52% 29.95 in 10.0 mi WNW 4.6 mph - N/A   Scattered Clouds
4:51 PM 75.0 °F 57.0 °F 53% 29.95 in 10.0 mi West 12.7 mph - N/A   Scattered Clouds
5:51 PM 73.0 °F 55.9 °F 55% 29.97 in 10.0 mi WNW 9.2 mph - N/A   Partly Cloudy
6:51 PM 70.0 °F 55.9 °F 61% 29.99 in 10.0 mi NW 5.8 mph - N/A   Clear
7:51 PM 64.9 °F 55.9 °F 73% 30.01 in 10.0 mi Calm Calm - N/A   Partly Cloudy
8:51 PM 63.0 °F 55.9 °F 78% 30.04 in 10.0 mi Calm Calm - N/A   Scattered Clouds
9:51 PM 59.0 °F 55.9 °F 90% 30.06 in 10.0 mi Calm Calm - N/A   Partly Cloudy
10:51 PM 60.1 °F 57.0 °F 90% 30.07 in 10.0 mi Calm Calm - N/A   Overcast
11:51 PM 60.1 °F 55.9 °F 86% 30.08 in 10.0 mi Calm Calm - N/A   Mostly Cloudy